Location: Oshawa
(43.9000°N, 78.8670°W)
Time: 14:12:43
(UTC-04:00)

SPOT 5 - Visible Passes

Search period start: 25 April 2015 00:00
Search period end: 05 May 2015 00:00
Orbit: 821 x 823 km, 98.5° (Epoch: 25 April)

Date Brightness Start Highest point End Pass type
(mag) Time Alt. Az. Time Alt. Az. Time Alt. Az.
25 Apr 3.2 22:06:35 24° S 22:09:55 78° WSW 22:15:19 10° NNW visible
26 Apr 3.1 21:46:08 21° SSE 21:49:48 72° ENE 21:55:11 10° N visible
26 Apr 5.5 23:27:32 10° SW 23:30:38 16° W 23:33:38 10° NW visible
27 Apr 3.5 21:25:41 16° SE 21:29:45 49° ENE 21:34:56 10° N visible
27 Apr 5.0 23:07:04 15° SW 23:10:13 23° W 23:14:24 10° NW visible
28 Apr 4.0 21:05:14 11° SE 21:09:45 33° ENE 21:14:33 10° N visible
28 Apr 4.4 22:46:38 19° SSW 22:49:54 35° W 22:54:45 10° NNW visible
29 Apr 4.4 20:45:42 10° ESE 20:49:47 24° ENE 20:54:01 10° NNE visible
29 Apr 3.8 22:26:11 21° SSW 22:29:39 52° W 22:34:54 10° NNW visible
30 Apr 3.2 22:05:44 20° S 22:09:29 78° WSW 22:14:53 10° NNW visible
01 May 3.1 21:45:17 18° SSE 21:49:22 72° ENE 21:54:44 10° N visible
01 May 5.5 23:26:56 10° SW 23:30:11 16° W 23:33:12 10° NW visible
02 May 3.5 21:24:50 13° SE 21:29:18 49° ENE 21:34:29 10° N visible
02 May 5.0 23:06:14 13° SW 23:09:47 23° W 23:13:57 10° NW visible
03 May 4.0 21:04:35 10° SE 21:09:18 33° ENE 21:14:06 10° N visible
03 May 4.4 22:45:47 16° SSW 22:49:27 35° W 22:54:18 10° NNW visible
04 May 4.5 20:45:15 10° ESE 20:49:21 23° ENE 20:53:34 10° NNE visible
04 May 3.8 22:25:20 18° S 22:29:12 52° W 22:34:27 10° NNW visible
